Regional Weather Roundup
Issued by NWS

Home | Current Version | Previous Version | Graphics & Text | Print | Product List | Glossary On
Versions: 1 2 3 4 5 6 7 8 9 10 11 12 13 14 15 16 17 18 19 20 21 22 23 24 25 26 27 28 29 30 31 32 33 34 35 36 37 38 39 40 41 42 43 44 45 46 47 48 49 50
000
ASUS43 KDTX 240010
RWRMI
MICHIGAN HOURLY REGIONAL WEATHER ROUNDUP
NATIONAL WEATHER SERVICE DETROIT/PONTIAC MI
ISSUED BY NATIONAL WEATHER SERVICE GRAND RAPIDS MI
800 PM EDT SUN JUL 23 2017

NOTE: "FAIR" INDICATES FEW OR NO CLOUDS BELOW 12,000 FEET WITH NO
SIGNIFICANT WEATHER AND/OR OBSTRUCTION TO VISIBILITY.

MIZ047>049-052>055-059>063-066>070-074>076-081>083-240100-
SOUTHEAST LOWER MICHIGAN

CITY           SKY/WX    TMP DP  RH WIND       PRES   REMARKS
ADRIAN         CLOUDY    77  69  76 W3        29.78R
6HR MIN TEMP:  71; 6HR MAX TEMP:  82; 6HR PCP:  0.09;

ALMA           SUNNY     77  59  53 NW6       29.77R
ANN ARBOR      PTCLDY    76  61  59 NW7       29.76R
BAD AXE        MOCLDY    67  64  92 CALM      29.75F
6HR MIN TEMP:  63; 6HR MAX TEMP:  81;

DETROIT CITY   PTCLDY    82  62  50 VRB6      29.73R
6HR MIN TEMP:  78; 6HR MAX TEMP:  83;

DETROIT        MOCLDY    80  71  74 SW10      29.74R
6HR MIN TEMP:  79; 6HR MAX TEMP:  86; 6HR PCP: TRACE;

FLINT          PTSUNNY   80  64  58 W10       29.75R
6HR MIN TEMP:  77; 6HR MAX TEMP:  83;

GROSSE ILE     CLOUDY    77  70  79 SW7       29.73R
6HR MIN TEMP:  77; 6HR MAX TEMP:  82;

HILLSDALE      CLOUDY    79  63  57 NW7       29.78R
HOWELL         MOSUNNY   74  66  76 CALM      29.77S
6HR MIN TEMP:  68; 6HR MAX TEMP:  82; 6HR PCP:  0.09;


CITY           SKY/WX    TMP DP  RH WIND       PRES   REMARKS
JACKSON        CLOUDY    78  65  63 NW6       29.78R
6HR MIN TEMP:  76; 6HR MAX TEMP:  81; 6HR PCP:  0.04;

LANSING        MOSUNNY   78  61  55 NW9       29.78R
6HR MIN TEMP:  77; 6HR MAX TEMP:  85;

MASON          PTSUNNY   79  67  67 NW3       29.78R
MONROE         PTCLDY    76  70  81 SW5       29.74R
MT. CLEMENS    MOCLDY    76  71  85 S5        29.71S
6HR MIN TEMP:  76; 6HR MAX TEMP:  81;

PONTIAC        MOCLDY    80  66  62 W10       29.74R
6HR MIN TEMP:  78; 6HR MAX TEMP:  84; 6HR PCP: TRACE;

PORT HOPE        N/A     68  63  84 VRB5      29.72F
6HR MIN TEMP:  67; 6HR MAX TEMP:  75; 6HR PCP:  0.10;

PORT HURON     CLEAR     75  68  78 CALM      29.74R
TRI CITIES     SUNNY     77  63  61 N14       29.76R
6HR MIN TEMP:  77; 6HR MAX TEMP:  84;

YPSILANTI      LGT RAIN  74  63  68 N8        29.76R
6HR MIN TEMP:  77; 6HR MAX TEMP:  87; 6HR PCP:  0.15;

$$
MIZ043>046-050>051-056>058-064>065-071>073-077>080-240100-
SOUTHWEST LOWER MICHIGAN

CITY           SKY/WX    TMP DP  RH WIND       PRES   REMARKS
BATTLE CREEK   MOSUNNY   79  66  64 NW9       29.78F
6HR MIN TEMP:  79; 6HR MAX TEMP:  87;

BENTON HARBOR  CLOUDY    75  67  76 CALM      29.78S
6HR MIN TEMP:  74; 6HR MAX TEMP:  82;

BIG RAPIDS     MOSUNNY   73  61  66 N16       29.79R
6HR MIN TEMP:  73; 6HR MAX TEMP:  79;

COLDWATER      MOSUNNY   79  63  57 NW5       29.78F
6HR MIN TEMP:  75; 6HR MAX TEMP:  85;

HOLLAND        PTSUNNY   75  66  73 N7        29.78F
6HR MIN TEMP:  75; 6HR MAX TEMP:  81;

GRAND RAPIDS   PTSUNNY   78  62  57 NW9       29.77S
6HR MIN TEMP:  78; 6HR MAX TEMP:  85;

KALAMAZOO      MOSUNNY   79  64  60 NW7       29.78F
6HR MIN TEMP:  79; 6HR MAX TEMP:  87;

MARSHALL       PTSUNNY   79  65  62 W5        29.77S
6HR MIN TEMP:  77; 6HR MAX TEMP:  87; 6HR PCP:  0.03;

MOUNT PLEASANT MOSUNNY   77  59  53 N6        29.76R
MUSKEGON       CLOUDY    79  64  60 N15       29.79R
6HR MIN TEMP:  76; 6HR MAX TEMP:  80;

STURGIS        SUNNY     77  66  68 CALM      29.78S
6HR MIN TEMP:  77; 6HR MAX TEMP:  85;

$$
MIZ016>042-240100-
NORTHERN LOWER MICHIGAN

CITY           SKY/WX    TMP DP  RH WIND       PRES   REMARKS
ALPENA         CLOUDY    64  63  96 NE9       29.80R
6HR MIN TEMP:  64; 6HR MAX TEMP:  77; 6HR PCP:  0.38;

BEAVER ISLAND  RAIN      61  61  98 NE12      29.87R
6HR MIN TEMP:  61; 6HR MAX TEMP:  69;

BELLAIRE       CLOUDY    70  59  69 NE16      29.81R
6HR MIN TEMP:  70; 6HR MAX TEMP:  75;

CADILLAC       MOSUNNY   71  61  69 NW8       29.81R
CHARLEVOIX     CLOUDY    66  59  79 NE10G17   29.87R
GAYLORD        MOSUNNY   65  58  78 NE9       29.83R
6HR MIN TEMP:  64; 6HR MAX TEMP:  72; 6HR PCP:  0.30;

HOUGHTON LAKE  MOSUNNY   71  62  73 N6        29.80R
6HR MIN TEMP:  64; 6HR MAX TEMP:  78; 6HR PCP:  0.32;

MANISTEE       MOSUNNY   68  63  84 NW8       29.82R
OSCODA         CLOUDY    70  62  76 NW12G17   29.75R
6HR MIN TEMP:  63; 6HR MAX TEMP:  82; 6HR PCP:  1.17;

PELLSTON       CLOUDY    61  59  93 NE12      29.85R FOG
6HR MIN TEMP:  61; 6HR MAX TEMP:  68; 6HR PCP:  0.21;

TRAVERSE CITY  PTSUNNY   69  63  81 N12       29.80R
6HR MIN TEMP:  69; 6HR MAX TEMP:  82; 6HR PCP: TRACE;

LUDINGTON      PTSUNNY   69  64  84 N12       29.82R
6HR MIN TEMP:  68; 6HR MAX TEMP:  74;

$$
MIZ007>008-015-240100-
EASTERN UPPER MICHIGAN

CITY           SKY/WX    TMP DP  RH WIND       PRES   REMARKS
KINROSS        CLOUDY    58  55  90 NE17      29.89R
6HR MIN TEMP:  58; 6HR MAX TEMP:  61;

MACKINAC ISLAN CLOUDY    60  60 100 NE15G22   29.86R
6HR MIN TEMP:  60; 6HR MAX TEMP:  63; 6HR PCP:  0.13;

NEWBERRY       CLOUDY    56  55  97 NE13G20   29.92R FOG
6HR MIN TEMP:  56; 6HR MAX TEMP:  59; 6HR PCP:  0.02;

S. S. MARIE    LGT RAIN  58  54  86 NE8       29.90R
6HR MIN TEMP:  58; 6HR MAX TEMP:  61; 6HR PCP:  0.59;

$$
MIZ004>006-011>014-085-240100-
CENTRAL UPPER MICHIGAN

CITY           SKY/WX    TMP DP  RH WIND       PRES   REMARKS
MANISTIQUE     CLOUDY    59  56  89 N10G18    29.89R
6HR MIN TEMP:  59; 6HR MAX TEMP:  71;

ESCANABA       CLOUDY    62  57  83 N12G20    29.90R
6HR MIN TEMP:  62; 6HR MAX TEMP:  69;

MENOMINEE      PTSUNNY   65  56  72 N15       29.90R
6HR MIN TEMP:  64; 6HR MAX TEMP:  79;

SAWYER-GWINN   PTSUNNY   55  54  94 N12       29.96R
$$
MIZ001>003-009>011-084-240100-
WESTERN UPPER MICHIGAN

CITY           SKY/WX    TMP DP  RH WIND       PRES   REMARKS
IRON MOUNTAIN  CLOUDY    63  54  72 N12G20    29.93S
6HR MIN TEMP:  62; 6HR MAX TEMP:  74;

HOUGHTON       SUNNY     64  52  64 E6        29.99R
6HR MIN TEMP:  61; 6HR MAX TEMP:  65;

COPPER HARBOR    N/A     58  52  80 CALM      29.98R
6HR MIN TEMP:  56; 6HR MAX TEMP:  61;

IRONWOOD       CLOUDY    60  57  89 NE5       30.01S
6HR MIN TEMP:  57; 6HR MAX TEMP:  60;

$$

ABBREVIATIONS USED IN REMARKS
   TC - TEMPERATURE IN CELSIUS
  WCI - WIND CHILL INDEX
   HX - HEAT INDEX
  VSB - VISIBILITY





USA.gov is the U.S. government's official web portal to all federal, state and local government web resources and services.